Location: Ellerstadt
(49.4644°N, 8.2615°E)
Time: 09:34:42
(UTC+00:00)

Cosmos 44 Rocket - Pass Details

Date: 03 March 2021
Orbit: 636 x 754 km, 65.1° (Epoch: 13 April)

Event Time Altitude Azimuth Distance (km) Brightness Sun altitude
Rises 18:19:41 0° 318° (NW) 3,210 7.5 -11.6°
Reaches altitude 10° 18:22:07 10° 314° (NW) 2,286 6.7 -12.0°
Maximum altitude 18:27:13 54° 238° (WSW) 917 4.2 -12.8°
Drops below altitude 10° 18:32:16 10° 163° (SSE) 2,257 5.7 -13.6°
Sets 18:34:39 0° 158° (SSE) 3,166 6.4 -14.0°
